< < Back
Terminal Aerodrome Forecast


Current Version              Previous Versions:   1  2  3  4  5  6  7  8  9  

Terminal Aerodrome Forecast

886
FTUS42 KFFC 242202 AAA
TAFFTY
TAF AMD
KFTY 242202Z 2422/2518 36004KT P6SM FEW070
     FM250000 00000KT P6SM FEW250
     FM251500 09003KT P6SM FEW035=



Latest METAR

881
SAUS70 KWBC 251700 RRB
MTRFTY
METAR KFTY 251653Z 00000KT 10SM CLR 32/16 A3009 RMK AO2 SLP180
T03220161


USA.gov is the U.S. government's official web portal to all federal, state and local government web resources and services.